Theta_e
336 336 335 336 335 334 334 334 334 334 332 330 330 328 326 324 324 326 326 327 328 329 330 328 328 328 327 326 326 326 325 325 326 326 325 325 324 325 325 325 324 321 319 317 319 320 320 323 326 327 328 328 327 327 331 335 334 332 331 331 331 330
337 336 335 335 334 334 334 334 334 333 332 329 328 328 325 324 326 329 330 329 330 331 332 329 330 329 328 328 326 325 324 323 323 323 322 322 322 323 324 323 322 321 320 317 317 320 320 320 324 326 327 328 326 330 333 333 333 332 332 331 331 328
337 337 337 336 334 334 333 334 333 330 331 330 328 327 326 326 329 331 331 331 331 332 332 331 331 330 329 329 327 323 323 322 321 321 321 321 321 321 322 321 320 321 320 319 321 325 326 324 323 324 326 326 328 334 334 332 332 332 331 330 330 327
337 337 338 336 334 334 333 334 333 329 330 330 328 327 328 329 332 333 333 332 332 332 333 332 331 330 330 330 328 323 323 323 322 322 320 322 323 321 320 320 321 321 320 323 328 329 330 330 328 325 326 328 332 336 333 331 332 331 330 328 328 325
337 336 335 335 334 333 332 332 332 331 330 330 328 328 329 331 332 332 333 332 333 333 334 332 330 330 329 330 329 326 325 326 326 325 322 327 330 326 324 326 327 325 324 328 330 330 330 331 331 331 331 332 334 334 333 332 332 331 330 326 325 324
337 335 333 333 333 333 332 330 330 330 328 328 328 327 328 329 329 329 331 333 333 333 333 330 329 327 327 330 330 329 330 330 331 328 325 329 332 330 329 331 332 329 328 330 329 329 330 330 331 332 333 334 334 333 333 332 332 332 330 327 325 324
338 336 334 331 331 332 332 330 327 327 327 327 327 327 328 329 329 329 331 333 333 332 331 328 328 326 326 330 331 331 332 330 331 330 328 330 331 331 331 331 331 330 329 329 328 327 328 330 331 332 333 334 333 333 333 332 332 332 330 328 325 323
338 335 335 333 330 330 331 330 327 326 328 329 328 329 330 331 330 330 331 331 330 329 327 327 329 326 327 331 330 330 332 330 331 331 329 330 331 330 331 331 330 329 328 329 328 328 328 329 330 331 332 334 334 333 333 333 334 332 331 329 326 323
336 332 335 335 331 331 332 331 328 328 329 331 330 331 331 331 330 330 330 328 327 327 326 327 328 326 327 330 329 329 331 331 330 329 328 329 329 329 329 330 329 328 329 329 329 328 329 328 329 330 331 333 334 333 333 333 333 332 332 331 327 324
336 332 334 334 332 333 332 331 330 330 330 331 331 331 331 330 330 329 327 326 325 326 327 328 327 325 325 327 328 328 329 330 329 327 327 327 327 326 328 328 328 329 329 330 329 328 328 328 329 330 330 331 332 333 333 332 332 332 332 331 328 326
336 334 334 332 332 333 331 329 329 330 331 331 330 330 330 329 329 326 324 324 326 327 329 329 328 326 326 328 328 327 328 328 328 328 326 327 327 326 327 327 326 329 329 329 329 327 327 328 328 330 330 330 331 332 332 332 332 332 331 331 329 328
336 334 334 331 330 332 331 329 330 329 329 329 329 330 330 329 329 326 326 328 328 330 329 327 327 328 329 329 328 328 328 325 326 328 326 325 327 327 326 326 326 329 330 330 329 327 327 328 328 328 329 330 330 331 331 332 331 332 332 330 329 330
336 334 335 333 330 329 330 330 329 327 328 329 328 330 328 326 329 330 330 330 330 330 328 326 327 328 328 327 328 329 328 326 326 327 326 324 325 326 327 327 327 328 329 330 329 328 328 329 329 329 328 329 330 330 330 330 330 332 332 331 330 330
337 333 334 334 331 330 329 329 327 326 329 327 325 331 330 328 332 331 331 331 330 330 329 327 326 327 327 326 328 329 329 327 327 328 327 325 323 324 327 328 327 328 328 329 330 329 328 329 330 330 330 329 329 329 330 329 330 332 332 332 331 329
336 333 331 331 332 331 329 329 328 326 325 325 328 333 332 331 332 331 330 329 328 329 329 328 327 326 327 326 328 330 330 328 328 330 327 324 323 323 326 327 326 328 328 328 329 329 328 329 330 330 330 330 329 329 329 329 329 330 330 329 330 329
335 333 331 332 332 328 327 328 329 328 327 330 334 334 331 328 328 328 329 327 325 327 328 329 328 327 327 327 329 331 331 329 328 328 326 324 324 323 325 325 325 327 328 328 329 330 330 330 330 330 330 330 330 329 329 330 329 327 328 326 327 329
330 332 332 334 332 327 329 329 330 332 331 332 333 332 330 326 323 324 326 326 326 326 328 329 328 329 328 328 330 331 331 328 326 326 325 325 325 324 324 324 324 325 326 328 329 330 332 331 332 332 332 331 330 328 328 329 328 325 327 326 325 328
326 332 334 333 332 331 333 333 332 332 329 328 326 325 327 326 324 323 323 326 328 328 329 329 328 329 329 328 330 331 329 328 325 326 326 324 324 324 324 324 324 324 325 328 330 330 331 332 332 332 332 330 327 327 328 328 326 326 327 325 323 326
329 333 333 330 331 334 335 332 329 325 324 325 322 320 324 324 324 324 323 323 325 327 328 329 328 329 329 329 330 330 330 330 327 326 326 325 324 324 323 324 323 323 324 327 329 330 331 331 331 332 332 330 327 328 328 326 325 326 326 325 325 326
329 330 327 325 329 332 331 327 323 324 326 329 326 324 327 327 326 325 323 321 322 325 326 327 328 327 328 329 331 331 329 330 328 327 328 326 326 325 324 325 324 324 324 326 330 330 329 330 331 332 332 331 330 329 328 326 325 327 326 325 326 326
327 328 325 325 329 330 327 324 326 330 330 330 328 327 329 328 326 323 321 322 321 322 323 325 327 327 327 328 330 330 330 329 329 330 329 328 328 326 325 326 326 325 325 326 329 330 330 329 330 330 329 330 330 330 329 327 325 326 326 325 326 326
327 330 328 327 331 330 327 328 331 332 329 328 329 328 327 324 317 312 314 319 319 320 321 321 324 326 327 328 328 328 329 329 330 331 331 329 328 326 326 327 326 326 325 326 328 330 330 329 329 329 329 329 329 329 329 328 327 327 327 327 327 326
328 329 328 328 332 329 329 334 332 331 330 330 330 328 326 323 318 312 312 318 319 319 321 322 323 324 325 328 327 328 328 328 329 330 329 328 327 325 324 325 326 325 325 327 329 330 329 328 328 329 328 328 329 328 328 328 327 328 328 328 328 327
330 328 326 328 332 329 330 334 331 331 331 327 325 323 324 325 323 317 316 320 319 317 322 324 323 323 323 323 324 328 330 328 328 328 327 328 327 326 325 326 326 326 327 329 330 330 329 328 328 329 328 327 327 328 328 327 327 327 328 328 328 328
328 325 323 326 332 330 328 329 327 328 326 322 323 325 326 325 323 321 320 320 318 319 323 323 322 324 324 319 316 320 326 327 328 327 328 328 327 328 328 327 327 327 329 330 330 331 331 328 327 327 327 327 326 326 327 327 326 327 327 326 327 326
324 324 322 327 333 330 326 324 323 325 326 326 329 330 327 325 324 322 320 320 320 321 322 320 322 324 320 315 314 313 316 323 327 325 326 328 328 329 328 328 327 328 329 328 328 330 331 329 327 326 326 326 327 326 327 327 327 327 326 326 325 324
325 324 323 330 333 328 324 325 326 328 329 330 330 329 327 326 325 320 316 317 315 316 318 316 318 320 317 314 316 317 316 320 325 323 322 324 327 329 329 329 329 328 329 328 329 329 330 329 328 328 327 325 326 326 326 327 327 326 325 324 323 322
326 323 326 332 331 328 328 329 331 330 329 330 327 326 326 324 321 315 316 319 316 318 322 320 319 320 321 320 318 319 318 319 324 324 323 323 325 327 327 328 327 326 325 327 329 329 328 329 328 328 328 327 325 325 326 326 326 325 325 324 323 322
326 326 331 332 329 330 331 330 331 330 328 328 325 325 325 322 318 314 317 322 322 322 319 318 320 320 322 324 322 322 320 320 323 324 324 324 326 327 325 324 323 322 323 325 327 327 327 329 329 328 328 328 327 326 326 327 326 324 324 323 322 322
328 328 332 333 330 331 331 330 332 330 328 327 326 326 324 320 318 317 318 321 323 324 319 315 318 320 323 324 322 323 322 321 322 322 323 324 325 326 324 323 321 320 323 325 325 326 326 327 327 327 328 328 327 327 326 327 326 324 323 323 322 322
326 326 330 333 332 331 329 331 331 329 328 327 325 325 323 321 321 320 321 322 323 324 324 320 319 319 322 321 319 321 321 322 322 322 322 323 323 323 323 323 321 319 321 323 325 325 324 325 325 325 327 328 327 326 326 326 326 325 324 323 323 322
323 325 327 328 330 331 330 331 330 328 328 327 325 323 322 323 323 322 322 323 323 322 322 321 321 321 321 320 320 320 322 322 323 322 322 322 322 322 322 322 322 322 321 322 323 324 324 325 326 326 326 327 326 326 326 325 325 325 324 324 322 322
325 325 324 322 324 327 329 330 329 328 328 328 326 324 322 322 323 322 322 322 321 321 321 321 323 322 319 318 320 321 322 323 322 321 320 321 321 322 322 321 322 323 322 322 323 323 324 324 326 327 326 325 325 325 325 325 325 325 324 323 322 320
325 325 325 324 321 320 326 329 327 326 328 328 327 325 323 323 322 321 321 321 321 321 321 322 323 322 318 318 320 322 322 322 323 321 319 317 317 320 322 321 322 323 323 324 324 323 323 324 325 325 324 323 324 323 322 322 323 323 322 321 320 318
324 325 324 323 322 320 324 327 324 324 327 328 327 326 323 322 323 322 321 321 321 321 321 322 322 317 313 314 318 321 322 321 320 318 315 313 313 317 321 321 320 321 321 322 322 323 323 323 323 322 321 320 319 319 318 317 317 318 319 319 318 317
323 323 323 322 325 325 325 326 326 326 328 328 327 325 323 321 321 320 320 320 320 320 321 321 317 310 307 309 313 316 317 314 312 310 310 314 316 318 320 319 317 316 317 317 318 320 320 319 319 318 317 316 315 314 314 313 314 314 315 316 316 315
323 322 322 323 325 327 327 326 325 326 329 328 326 325 322 319 316 315 317 319 317 317 320 318 312 306 306 307 308 310 308 306 306 305 309 315 318 318 319 318 316 314 313 313 313 314 315 314 313 313 313 314 314 314 314 314 314 314 314 314 314 314
Wind_Speed
18 17 18 19 19 18 17 17 16 14 12 11 10 11 10 11 12 11 11 10 10 10 10 10 10 9 9 8 8 7 7 6 6 5 5 4 3 3 2 1 0 1 2 3 5 6 7 9 10 10 11 10 10 9 7 7 7 5 5 4 7 7
17 16 17 18 19 18 15 16 16 14 12 11 10 10 11 12 12 11 10 11 11 11 11 11 10 9 8 8 7 7 7 6 6 5 5 4 3 3 3 2 1 1 2 2 3 4 5 7 10 10 10 10 9 6 5 7 7 5 5 5 8 6
16 17 18 18 17 17 16 15 14 13 12 12 12 11 12 12 12 11 11 11 11 11 11 11 11 10 8 8 7 6 6 5 5 5 4 4 3 3 3 3 2 1 2 3 4 4 3 4 8 11 10 10 9 6 6 7 6 5 4 5 7 4
16 17 17 17 16 16 16 14 13 13 14 13 13 12 12 11 10 9 10 11 11 12 12 11 10 9 8 7 6 6 5 5 5 5 4 4 4 3 3 2 1 1 2 4 4 4 5 4 6 9 10 10 8 7 7 7 5 6 5 6 5 4
16 17 16 16 17 16 15 13 13 15 14 12 13 13 12 11 9 9 10 10 10 10 10 11 10 9 7 6 5 6 6 5 6 5 5 5 5 4 3 2 1 1 4 4 4 6 8 7 7 8 9 9 9 8 7 6 5 6 7 8 4 4
16 19 16 14 15 15 16 14 13 13 13 13 12 12 12 11 10 11 11 8 6 5 6 8 9 8 7 6 6 6 6 6 7 6 5 5 4 4 4 3 2 3 3 4 6 8 8 8 8 8 9 9 9 9 7 6 6 7 8 8 5 5
13 16 16 14 14 13 15 15 13 12 12 12 12 12 13 11 10 11 9 5 3 2 4 6 7 7 6 7 7 6 7 7 6 5 5 5 4 5 3 3 4 4 4 5 5 7 8 8 8 8 9 10 10 10 9 7 7 6 6 6 5 6
11 13 15 16 16 15 15 15 14 14 13 13 13 13 13 12 10 9 8 6 5 3 2 6 8 8 7 6 6 7 9 7 4 4 6 5 3 5 4 3 4 4 5 6 6 6 7 8 9 9 9 11 11 10 10 8 8 7 7 6 5 4
12 13 15 16 17 17 16 16 15 15 15 15 13 12 11 10 7 6 7 8 9 8 7 7 7 7 7 7 7 8 9 7 4 2 4 4 2 4 4 3 4 4 5 6 6 6 7 8 9 9 9 10 11 10 10 9 8 8 6 5 4 3
11 13 14 13 15 17 16 15 14 14 14 14 12 11 10 7 6 7 9 10 10 10 10 9 9 7 8 9 7 7 8 6 6 4 4 3 2 3 4 3 5 6 6 6 6 7 8 8 8 9 9 10 9 9 9 8 8 7 6 5 4 2
11 11 12 12 13 15 14 13 13 12 11 12 11 9 8 7 7 8 9 10 10 10 10 10 10 9 9 9 7 7 8 6 6 6 5 3 3 4 4 5 6 7 7 7 6 7 7 8 8 8 8 9 9 9 9 8 8 7 7 6 4 3
10 10 11 12 12 13 13 13 12 11 10 10 9 8 7 7 8 9 10 10 9 10 10 9 9 9 8 9 8 7 7 6 6 5 5 4 4 5 6 7 7 8 8 9 8 7 8 9 9 8 9 9 8 8 8 8 7 7 7 6 5 5
9 12 12 11 11 11 11 11 10 9 9 9 8 8 7 8 10 11 11 11 10 10 10 10 10 9 9 9 9 8 8 8 6 6 6 6 5 6 7 8 9 10 9 10 9 8 9 9 9 8 8 9 8 8 7 7 7 6 6 5 5 6
9 12 13 11 12 10 10 10 9 8 8 8 8 8 9 10 12 11 11 10 9 9 10 11 11 10 9 10 10 10 9 8 7 6 7 6 6 6 7 7 9 10 10 9 8 9 9 9 9 8 8 8 7 7 6 6 6 6 6 6 5 4
10 12 13 11 12 11 10 10 10 9 7 7 7 8 8 8 8 8 7 5 4 5 7 8 10 9 9 10 10 9 8 7 6 6 7 7 7 7 7 7 8 9 9 10 9 9 9 9 8 7 8 8 7 7 7 7 8 7 7 6 5 5
10 11 13 13 12 13 13 11 12 13 10 10 9 7 5 4 3 4 3 1 1 2 2 4 7 8 8 9 9 8 7 6 6 6 6 7 7 8 9 9 9 9 9 11 11 9 8 8 7 6 8 7 7 9 8 9 10 8 7 6 6 7
12 13 14 13 12 14 15 14 14 13 11 10 9 7 5 4 3 2 1 1 0 0 0 1 3 5 7 7 7 7 6 6 7 7 7 8 8 9 10 10 11 11 10 12 12 9 8 7 7 6 7 7 7 8 8 8 8 7 6 6 6 5
13 13 13 12 11 12 13 12 12 10 9 9 7 6 6 5 4 3 2 1 2 1 0 1 1 2 3 5 6 6 4 6 6 7 8 8 9 10 10 10 11 11 11 12 11 10 8 6 7 6 5 6 7 6 7 7 8 7 6 5 4 4
14 13 12 12 11 11 11 9 9 9 8 7 6 7 7 6 5 4 3 3 2 2 1 1 1 1 0 3 5 4 4 6 6 7 8 8 9 10 10 10 11 12 11 9 9 8 8 7 6 6 5 5 7 6 6 6 6 6 6 6 6 7
16 14 13 14 13 11 11 9 8 8 9 8 7 8 8 7 6 5 4 4 3 2 1 1 1 2 1 2 4 5 5 6 7 8 9 9 10 10 10 11 11 11 11 9 8 6 8 8 7 7 5 4 4 5 4 5 6 6 5 6 6 6
19 17 15 16 14 12 11 10 10 9 9 9 9 9 9 7 6 5 5 4 4 4 3 1 1 2 2 2 4 4 4 5 6 8 8 8 9 9 10 11 10 10 11 10 8 7 8 8 8 7 6 4 3 2 2 4 5 3 2 4 5 5
20 18 17 16 14 13 12 11 11 11 10 10 10 9 8 7 6 5 6 5 5 5 3 2 2 2 2 2 2 1 3 4 5 7 7 7 8 8 9 10 10 10 10 9 8 8 8 8 8 7 7 7 5 3 3 6 4 2 3 3 3 2
20 18 18 16 14 15 14 11 11 12 11 10 10 10 9 9 8 7 7 7 6 5 4 3 3 2 1 1 2 2 0 2 4 5 6 7 7 8 9 9 10 10 9 8 7 8 8 8 8 7 8 8 8 6 4 5 6 4 3 4 4 2
19 18 19 17 14 15 16 15 14 14 12 11 12 12 11 11 9 8 8 7 7 6 5 4 2 2 1 1 1 1 1 0 1 2 3 4 5 7 8 8 9 9 8 7 6 6 6 8 9 7 7 7 8 8 5 6 9 6 4 5 6 4
21 20 20 18 15 15 16 16 16 16 14 13 12 12 11 11 10 9 8 7 7 6 5 3 3 2 1 2 2 1 1 1 1 1 1 1 2 4 5 6 7 7 7 7 6 5 5 8 10 8 7 7 7 8 8 9 10 7 6 6 5 5
21 21 21 19 17 17 16 15 15 15 14 12 12 11 10 10 9 8 8 7 7 6 5 4 4 2 0 0 1 1 1 1 1 1 2 1 1 3 3 3 4 4 5 7 6 5 4 7 10 10 9 8 7 6 10 13 10 8 8 7 5 6
20 21 20 19 17 17 17 15 14 13 12 12 11 11 10 10 9 8 9 8 7 7 5 4 3 2 1 1 2 2 2 2 1 1 0 1 4 4 3 3 4 4 4 5 5 5 5 6 8 10 10 10 9 6 9 14 12 11 11 10 9 9
19 20 19 19 18 16 17 15 14 12 11 11 11 11 11 10 9 8 9 8 6 6 5 3 2 2 2 1 1 2 2 3 3 2 1 1 3 4 4 5 5 5 5 5 5 5 6 5 5 7 8 9 10 8 9 11 10 11 14 13 10 9
17 17 17 18 16 14 15 14 13 12 12 11 11 11 11 9 9 9 9 8 6 5 4 4 3 2 2 2 2 2 1 2 3 4 2 1 2 2 3 4 5 4 4 5 5 6 6 6 6 7 5 6 8 8 9 9 8 11 14 14 12 9
15 13 14 15 14 13 14 13 12 11 11 12 11 11 10 9 9 8 8 8 7 5 3 3 3 3 2 1 2 2 1 2 2 4 3 2 3 2 2 1 3 3 3 4 5 6 7 6 7 6 4 4 6 7 8 8 9 11 13 12 11 11
13 11 9 11 12 12 12 12 11 11 11 11 11 11 10 10 9 8 7 7 6 5 4 3 3 3 3 1 2 3 3 3 3 4 4 4 4 2 1 1 1 2 2 2 3 5 6 6 4 5 4 4 6 6 7 7 8 10 11 12 12 11
14 11 8 9 9 10 10 10 10 11 11 10 10 10 10 10 9 8 7 6 5 5 4 4 3 3 3 2 2 3 3 4 4 4 5 5 5 4 2 2 1 0 1 1 2 2 4 4 4 3 3 3 4 3 1 3 5 6 7 11 12 10
15 12 9 10 10 10 9 8 10 10 9 9 9 9 10 10 9 7 7 6 5 5 4 5 5 3 3 3 4 4 3 3 3 3 4 5 5 6 5 3 3 2 1 1 2 2 2 2 4 3 1 3 5 5 4 2 5 5 5 9 9 9
15 13 10 10 12 11 8 7 8 9 9 9 9 9 9 9 9 7 6 6 5 5 5 5 5 4 4 4 5 5 4 4 4 3 4 5 6 8 8 5 5 5 4 3 3 3 3 4 6 5 5 7 6 6 5 4 6 6 5 7 7 8
13 14 10 10 10 9 8 7 8 9 10 10 10 10 9 9 8 7 6 6 5 5 6 6 6 6 6 6 7 7 5 5 4 3 4 5 7 9 9 7 6 7 7 6 6 6 5 6 7 7 7 8 6 6 7 6 6 5 5 6 6 6
13 15 13 13 10 7 7 7 8 10 11 10 11 11 10 10 9 7 6 7 7 7 7 7 7 7 6 7 8 7 6 6 6 5 6 7 8 9 8 7 7 8 8 7 7 7 7 7 7 8 8 8 6 6 7 6 6 6 6 6 6 6
14 16 15 14 11 8 7 6 8 11 11 11 11 12 11 9 6 5 7 8 8 8 9 9 8 8 9 9 9 8 7 7 7 7 8 9 9 9 9 8 8 8 8 8 8 8 8 7 7 8 9 8 8 7 8 8 8 8 8 8 7 6
Wind_Direction
174 183 177 168 164 164 165 165 163 163 172 180 186 186 183 184 181 181 184 184 180 174 171 169 166 164 164 166 172 177 186 200 207 210 216 216 221 233 256 276 359 43 105 149 167 175 177 180 178 174 175 170 164 156 135 122 134 133 113 151 225 254
175 180 173 172 172 172 173 172 165 164 176 187 190 189 187 185 182 184 185 185 183 176 173 173 170 165 168 173 176 182 187 199 211 218 224 231 240 243 258 284 326 27 47 104 154 156 157 167 172 175 174 172 167 159 147 135 134 124 127 195 233 268
184 172 164 172 179 177 178 176 165 169 179 183 189 192 189 188 189 186 185 190 188 180 175 174 173 167 173 178 176 183 188 198 216 228 229 237 243 246 261 270 293 10 67 97 106 116 151 160 164 172 169 171 169 165 166 145 139 132 140 226 238 266
188 178 174 177 180 178 179 174 160 172 182 184 190 190 186 191 196 187 189 196 187 182 175 169 171 166 172 180 176 179 185 198 214 226 227 228 223 227 246 240 239 222 130 107 99 136 184 188 169 169 166 174 177 171 164 146 148 149 169 233 252 275
184 179 183 180 179 179 176 172 166 172 178 187 193 190 188 190 201 202 204 204 190 187 171 164 170 162 170 184 181 186 191 200 202 207 210 204 205 205 213 214 176 143 130 128 170 182 181 186 184 178 176 183 182 171 161 153 164 175 206 239 270 290
175 167 175 175 175 175 173 177 179 178 178 189 196 196 197 194 206 212 211 217 203 178 142 163 173 162 180 188 185 201 207 211 204 199 201 197 212 211 194 201 163 110 135 173 195 188 178 182 185 183 180 183 183 170 166 179 174 181 221 240 253 279
164 158 163 167 175 174 173 177 182 185 181 188 197 200 201 197 209 211 206 219 210 112 110 182 186 177 201 191 183 210 217 218 203 190 206 213 234 234 211 200 179 152 178 196 195 186 183 183 178 180 178 176 181 170 164 183 174 177 218 224 229 265
165 163 157 158 173 177 177 179 182 187 184 189 198 201 199 198 207 208 206 221 229 229 218 212 193 184 199 194 191 208 212 218 207 180 199 213 221 219 223 216 194 187 193 195 195 184 181 186 177 174 176 173 177 173 166 175 168 178 214 211 207 241
166 170 168 162 169 174 176 176 179 184 186 194 200 199 197 198 202 215 229 236 235 228 224 225 212 196 195 203 208 207 208 216 228 212 206 227 229 212 224 211 186 192 201 197 193 181 176 185 179 171 175 173 173 174 171 174 171 174 197 198 196 220
156 164 175 172 169 170 172 173 179 185 189 196 201 198 192 192 202 224 236 237 233 224 221 225 225 222 211 213 222 225 225 220 228 241 234 235 224 221 229 208 187 187 199 205 194 184 176 175 178 174 174 173 171 175 174 175 176 172 177 178 176 198
152 161 175 179 172 166 165 171 179 185 191 198 203 200 187 190 205 218 231 236 235 231 234 232 227 228 225 225 231 243 244 232 234 236 228 221 203 205 202 204 201 182 187 207 198 181 174 171 177 173 167 169 169 174 173 170 175 169 171 183 182 174
153 167 171 176 173 165 165 171 179 184 191 196 198 193 178 190 204 209 223 235 238 241 247 246 238 233 231 238 242 246 245 239 238 224 212 218 216 206 195 201 203 189 191 203 193 177 175 169 172 173 167 169 168 173 174 170 173 167 164 187 199 172
172 178 169 168 168 170 171 170 178 185 191 195 193 185 180 198 211 214 221 231 237 245 252 253 251 245 242 251 253 246 240 237 230 211 206 212 216 209 203 206 202 201 205 203 188 177 178 170 167 172 169 169 169 171 174 173 173 165 159 180 192 167
179 172 161 159 159 169 172 168 177 182 193 200 190 186 191 201 212 222 228 232 236 239 245 249 249 246 242 246 249 243 235 232 221 208 205 206 214 210 208 212 207 207 206 206 197 177 175 173 166 165 167 170 169 168 169 172 171 166 164 174 182 161
168 157 161 166 160 164 165 167 178 179 188 194 183 186 193 192 205 227 233 233 232 231 237 237 236 236 233 234 239 236 225 221 216 207 200 202 208 212 217 214 214 218 204 204 206 178 166 170 165 164 172 166 157 167 168 160 161 168 177 181 186 176
168 168 177 177 168 168 168 172 179 179 179 176 170 167 164 150 170 218 234 236 216 227 235 227 231 231 229 232 233 226 216 216 220 206 189 194 198 209 222 213 215 227 211 209 209 177 161 168 166 169 174 167 165 175 174 168 166 167 180 180 179 181
177 185 186 178 176 174 177 181 175 171 162 153 149 140 130 117 125 162 208 250 90 42 279 250 251 239 233 231 222 218 207 199 213 206 187 189 193 200 215 216 219 223 224 239 230 188 168 172 175 181 177 180 184 175 173 180 174 168 176 170 164 176
181 184 182 178 182 174 176 178 161 153 147 141 144 143 130 118 122 121 101 93 88 79 17 4 305 251 226 215 207 214 187 164 185 194 186 190 199 202 207 216 222 218 222 251 242 193 172 177 187 193 192 208 212 190 180 182 176 178 187 182 178 194
180 178 179 179 183 175 173 168 148 149 147 138 141 135 126 127 127 119 108 98 91 97 76 17 337 354 219 184 185 207 184 160 167 180 182 187 200 208 211 215 219 214 211 232 240 201 176 177 182 185 189 213 226 216 196 188 196 207 213 219 227 231
179 177 179 178 183 182 174 163 149 143 131 121 122 118 117 123 121 124 128 109 100 101 77 48 353 349 306 191 189 210 200 174 164 174 182 183 191 204 216 219 218 215 210 217 234 217 192 185 182 189 186 174 205 219 204 198 217 222 222 234 239 237
180 181 184 184 186 182 169 160 148 136 127 125 124 120 119 125 131 138 132 115 108 96 76 62 25 360 340 250 219 204 191 183 166 169 180 184 192 205 215 218 219 225 220 214 216 213 209 201 187 192 194 169 172 208 137 146 192 198 180 217 224 218
181 180 185 187 182 174 165 159 147 136 134 128 121 121 123 125 129 136 133 126 117 109 105 92 74 37 18 346 288 189 172 181 167 169 184 191 201 213 214 211 217 230 224 213 214 212 209 205 196 196 192 176 167 181 138 126 145 151 131 164 200 208
182 179 183 183 176 171 162 153 147 137 131 127 126 130 126 115 108 118 131 125 121 123 111 86 75 59 43 17 353 4 226 178 160 171 187 190 201 213 211 210 217 223 216 213 230 229 216 207 207 199 183 179 172 167 156 151 161 166 166 157 142 160
185 183 183 179 173 174 162 150 147 140 136 136 133 128 119 112 106 110 117 117 123 121 102 98 99 65 32 288 330 42 20 293 180 166 178 186 196 207 211 218 222 219 211 213 225 230 225 211 205 192 172 180 179 162 173 193 175 164 170 152 139 158
185 180 178 174 172 174 161 149 149 145 143 138 125 117 114 114 111 108 111 117 124 117 103 108 100 78 42 310 301 280 267 280 307 109 137 194 199 206 213 225 230 223 212 212 212 215 226 212 201 196 178 169 173 174 188 183 160 152 157 143 144 149
181 178 175 175 173 170 158 148 147 143 140 132 121 121 125 122 118 119 122 123 125 126 128 122 101 85 113 117 29 332 313 282 300 237 169 154 180 204 216 235 245 240 223 216 210 205 221 216 203 203 202 187 181 178 176 167 151 148 143 119 113 112
175 176 175 177 175 165 155 147 144 140 135 129 126 129 132 128 128 133 131 128 130 129 127 125 117 93 68 78 90 67 67 94 59 308 279 180 191 197 194 209 228 238 239 228 215 207 211 218 204 199 206 201 195 186 168 167 165 154 137 117 109 109
177 177 178 181 177 159 150 146 140 137 130 129 132 133 133 132 134 135 127 122 123 122 122 118 115 109 87 45 52 83 85 90 95 77 26 238 200 194 191 202 225 237 243 236 222 214 208 218 213 203 210 202 195 196 178 176 179 161 143 133 127 124
182 181 184 182 172 154 148 145 136 135 133 132 134 130 130 132 132 130 124 127 128 128 141 136 132 134 99 63 63 77 90 111 115 107 98 177 151 156 201 226 251 246 243 239 224 215 210 217 217 208 213 198 188 191 187 186 185 170 156 145 140 144
177 182 187 178 164 153 151 144 137 141 137 133 133 129 133 135 131 129 126 133 136 129 131 131 142 140 108 110 126 107 135 136 117 115 112 113 116 127 183 250 287 261 236 233 222 221 214 211 212 202 187 178 179 178 182 186 174 168 168 156 148 156
180 192 191 170 157 152 150 145 143 145 138 136 138 137 141 139 134 137 133 131 135 132 133 136 143 143 133 152 157 152 153 123 93 100 99 85 84 92 143 156 300 282 251 224 222 225 208 195 196 195 188 183 182 175 179 185 169 163 160 147 144 150
181 191 186 168 158 151 149 152 154 149 143 143 142 141 145 143 140 144 141 137 142 144 149 146 132 146 164 154 140 145 138 120 110 105 99 90 84 76 82 124 128 293 262 218 217 217 194 178 157 170 207 187 154 133 151 164 148 149 137 130 136 139
174 176 175 173 174 166 153 156 157 150 149 148 143 142 144 144 145 147 146 147 148 147 149 146 136 157 182 152 129 131 128 127 125 127 129 118 102 85 70 89 114 107 135 164 182 180 156 141 135 130 103 127 112 69 34 65 99 99 106 121 132 134
170 171 172 171 175 171 154 159 167 162 160 154 147 146 145 148 150 150 151 149 150 154 154 147 147 161 168 151 140 136 133 124 109 131 169 167 144 112 85 82 100 98 97 99 123 146 129 105 113 105 83 93 97 75 65 77 87 91 111 126 135 138
157 162 163 159 165 160 148 166 190 188 177 165 156 152 151 153 153 151 154 152 154 160 152 149 166 184 178 165 156 143 135 138 136 165 188 171 152 129 100 89 101 102 99 98 104 113 113 108 106 102 90 87 87 84 81 82 87 98 117 128 138 139
144 145 142 143 153 155 146 163 190 191 182 172 163 155 156 160 156 155 158 158 159 156 152 161 181 187 170 158 157 154 156 161 158 167 161 135 132 131 112 102 112 109 100 95 98 99 102 113 119 116 105 95 96 98 96 98 100 105 107 112 131 134
146 141 139 145 159 164 157 171 195 195 188 179 166 159 164 165 151 147 157 162 167 163 164 178 183 170 155 151 152 153 156 155 146 143 137 127 133 134 118 112 121 124 126 125 124 121 115 115 119 117 106 97 97 97 97 99 101 106 103 103 119 124